| time (UTC) | temp C | wind direction | speed KPH | gust KPH | rain 1hr cm | rain 24hr cm | rain mn cm | humidity % | barometer mb |
| 20260504214557 | 22 | 165 | 8.0 | 33.8 | 0.00 | 0.00 | 0.00 | 42 | 998.4 |
| 20260504213054 | 23 | 182 | 19.3 | 37.0 | 0.00 | 0.00 | 0.00 | 41 | 998.5 |
| 20260504211558 | 23 | 131 | 12.9 | 37.0 | 0.00 | 0.00 | 0.00 | 41 | 998.5 |
| 20260504210056 | 23 | 192 | 11.3 | 43.5 | 0.00 | 0.00 | 0.00 | 42 | 998.3 |
| 20260504204601 | 22 | 172 | 9.7 | 35.4 | 0.00 | 0.00 | 0.00 | 43 | 998.5 |
| 20260504203104 | 22 | 165 | 8.0 | 35.4 | 0.00 | 0.00 | 0.00 | 43 | 998.8 |
| 20260504201556 | 22 | 155 | 9.7 | 35.4 | 0.00 | 0.00 | 0.00 | 43 | 998.7 |
| 20260504200055 | 22 | 181 | 8.0 | 32.2 | 0.00 | 0.00 | 0.00 | 42 | 999.0 |
| 20260504194555 | 23 | 201 | 8.0 | 22.5 | 0.00 | 0.00 | 0.00 | 42 | 999.1 |
| 20260504193056 | 22 | 150 | 9.7 | 30.6 | 0.00 | 0.00 | 0.00 | 41 | 999.2 |
| 20260504191606 | 23 | 150 | 8.0 | 32.2 | 0.00 | 0.00 | 0.00 | 40 | 999.5 |
| 20260504190116 | 23 | 150 | 11.3 | 29.0 | 0.00 | 0.00 | 0.00 | 40 | 999.5 |
| 20260504184555 | 23 | 235 | 9.7 | 27.4 | 0.00 | 0.00 | 0.00 | 41 | 999.6 |
| 20260504183104 | 22 | 198 | 6.4 | 25.7 | 0.00 | 0.00 | 0.00 | 42 | 999.7 |
| 20260504181559 | 22 | 192 | 4.8 | 29.0 | 0.00 | 0.00 | 0.00 | 43 | 1000.0 |
| 20260504174555 | 22 | 257 | 8.0 | 24.1 | 0.00 | 0.00 | 0.00 | 41 | 1000.2 |
| 20260504173055 | 22 | 236 | 4.8 | 25.7 | 0.00 | 0.00 | 0.00 | 43 | 1000.4 |
| 20260504171555 | 22 | 257 | 3.2 | 14.5 | 0.00 | 0.00 | 0.00 | 45 | 1000.5 |
| 20260504160103 | 19 | 150 | 17.7 | 32.2 | 0.00 | 0.00 | 0.00 | 52 | 1001.6 |
| 20260504140104 | 15 | 163 | 9.7 | 20.9 | 0.00 | 0.00 | 0.00 | 64 | 1002.7 |
| 20260504081557 | 10 | 181 | 6.4 | 17.7 | 0.00 | 0.00 | 0.00 | 72 | 1004.0 |
| 20260504050106 | 11 | 158 | 9.7 | 22.5 | 0.00 | 0.00 | 0.00 | 65 | 1006.2 |
| 20260504044602 | 11 | 148 | 6.4 | 27.4 | 0.00 | 0.00 | 0.00 | 63 | 1006.3 |
| 20260504043059 | 11 | 203 | 3.2 | 20.9 | 0.00 | 0.00 | 0.00 | 63 | 1006.3 |
| 20260504041602 | 11 | 124 | 6.4 | 17.7 | 0.00 | 0.00 | 0.00 | 62 | 1006.5 |
| 20260504034559 | 12 | 148 | 6.4 | 20.9 | 0.00 | 0.00 | 0.00 | 60 | 1006.8 |
| 20260504033058 | 12 | 132 | 9.7 | 27.4 | 0.00 | 0.00 | 0.00 | 59 | 1006.7 |
| 20260504031559 | 12 | 182 | 9.7 | 22.5 | 0.00 | 0.00 | 0.00 | 57 | 1006.9 |
| 20260504030059 | 13 | 176 | 6.4 | 24.1 | 0.00 | 0.00 | 0.00 | 56 | 1006.9 |
| 20260504024616 | 13 | 195 | 3.2 | 16.1 | 0.00 | 0.00 | 0.00 | 56 | 1007.1 |
| 20260504023059 | 13 | 236 | 3.2 | 16.1 | 0.00 | 0.00 | 0.00 | 54 | 1007.2 |
| 20260504021559 | 13 | 160 | 3.2 | 12.9 | 0.00 | 0.00 | 0.00 | 53 | 1007.2 |
| 20260504020059 | 13 | 200 | 1.6 | 14.5 | 0.00 | 0.00 | 0.00 | 52 | 1007.1 |
| 20260504014606 | 13 | 156 | 1.6 | 9.7 | 0.00 | 0.00 | 0.00 | 52 | 1007.0 |
| 20260504013100 | 14 | 109 | 3.2 | 14.5 | 0.00 | 0.00 | 0.00 | 50 | 1006.9 |
| 20260504011559 | 14 | 155 | 3.2 | 11.3 | 0.00 | 0.00 | 0.00 | 50 | 1006.8 |
| 20260504010108 | 14 | 144 | 1.6 | 11.3 | 0.00 | 0.00 | 0.00 | 49 | 1006.7 |
| 20260504004600 | 14 | 165 | 1.6 | 9.7 | 0.00 | 0.00 | 0.00 | 49 | 1006.6 |
| 20260504003100 | 15 | 176 | 1.6 | 11.3 | 0.00 | 0.00 | 0.00 | 48 | 1006.4 |
| 20260504001559 | 15 | 182 | 3.2 | 12.9 | 0.00 | 0.00 | 0.00 | 46 | 1006.3 |
| 20260504000139 | 15 | 161 | 3.2 | 12.9 | 0.00 | 0.00 | 0.00 | 46 | 1006.3 |
| 20260503234602 | 15 | 153 | 3.2 | 12.9 | 0.00 | 0.00 | 0.00 | 45 | 1006.3 |
| 20260503233100 | 15 | 231 | 0.0 | 9.7 | 0.00 | 0.00 | 0.00 | 46 | 1006.5 |
| 20260503231600 | 15 | 221 | 0.0 | 20.9 | 0.00 | 0.00 | 0.00 | 45 | 1006.6 |
| 20260503224600 | 15 | 145 | 0.0 | 14.5 | 0.00 | 0.00 | 0.00 | 45 | 1006.9 |
| 20260503223100 | 15 | 169 | 1.6 | 9.7 | 0.00 | 0.00 | 0.00 | 45 | 1007.0 |
| 20260503223001 | 15 | 169 | 1.6 | 9.7 | 0.00 | 0.00 | 0.00 | 46 | 1007.0 |
| 20260503221601 | 15 | 162 | 3.2 | 14.5 | 0.00 | 0.00 | 0.00 | 46 | 1007.0 |
| 20260503220100 | 15 | 235 | 1.6 | 9.7 | 0.00 | 0.00 | 0.00 | 48 | 1007.2 |